202P/Scotti (2009)

Japanese version
Home page
Total 6,336 html files since Dec. 4, 1995
Updated on October 26, 2008

---------------------------------------------------------------------

* Profile

Designation 202P/2008 R2
Recovery Date September 5, 2008
Magnitude 20.5 mag
Recoverer J. V. Scotti (Lunar and Planetary Laboratory)

* Orbital Elements

Epoch 2009 Feb. 18.0 TT = JDT 2454880.5
T 2009 Feb. 7.01580 TT                                  MPC
q   2.5269628            (2000.0)            P               Q
n   0.13430769     Peri.  255.56010     -0.00227234     -0.99995137
a   3.7763202      Node   194.58025     +0.93153982     +0.00137314
e   0.3308399      Incl.    2.18485     +0.36363222     -0.00976635
P   7.34

* Magnitudes Graph

        m1 = 14.0 + 5 log d + 10.0 log r

---------------------------------------------------------------------

The orbital elements are published on M.P.E.C. 2008-R30.
The magnitudes graphs are made with Comet for Windows.

---------------------------------------------------------------------

Copyright(C) 1995-2008 Seiichi Yoshida (comet@aerith.net). All rights reserved.